Simultaneous Nadir Overpasses (SNOs) Predictions

Prediction of SNOs between GOES-17 and NOAA-20 Satellite Orbit:

Table of predicted SNOs for the next 14.0 days since TLE Epoch: 11/2/2019
Index Date Time (GOES-17) GOES-17 Lat,Lon NOAA-20 Lat,Lon Distance(km) Time Diff (sec)
1 11/02/2019 10:36:42 0.00,-137.21 0.25,-138.31 125.71 80
2 11/03/2019 10:20:37 0.00,-137.21 -0.76,-133.78 390.34 80
3 11/04/2019 22:39:54 -0.00,-137.20 -0.43,-139.09 215.55 80
4 11/05/2019 22:23:49 -0.00,-137.19 0.58,-134.56 300.29 80
5 11/07/2019 10:42:58 0.00,-137.19 0.58,-139.83 300.62 80
6 11/08/2019 10:26:53 0.00,-137.18 -0.44,-135.30 215.01 80
7 11/09/2019 22:46:09 -0.01,-137.16 -0.75,-140.60 391.64 80
8 11/10/2019 22:30:04 -0.01,-137.15 0.21,-136.06 123.70 80
9 11/12/2019 10:49:12 0.01,-137.14 0.95,-141.33 478.21 80
10 11/13/2019 10:33:08 0.02,-137.12 -0.07,-136.80 36.62 80
11 11/15/2019 22:33:39 -0.03,-137.06 -0.15,-137.56 57.31 80




NCC Satellite Simultaneous Nadir Overpasses (SNOs) Prediction Service
